Location: Normandy Village
(37.8755°N, 122.2655°W)
Time: 05:20:04
(UTC+00:00)

Cosmos 923 Rocket - Pass Details

Date: 22 September 2019
Orbit: 759 x 785 km, 74.0° (Epoch: 15 October)

Event Time Altitude Azimuth Distance (km) Brightness Sun altitude
Exits shadow 12:32:34 10° 200° (SSW) 2,315 6.2 -17.3°
Maximum altitude 12:37:50 81° 288° (WNW) 798 4.0 -16.2°
Drops below altitude 10° 12:43:11 10° 16° (NNE) 2,345 6.9 -15.2°
Sets 12:45:35 0° 18° (NNE) 3,274 7.7 -14.8°
